Regional Weather Roundup
Issued by NWS

Home | Current Version | Previous Version | Graphics & Text | Print | Product List | Glossary On
Versions: 1 2 3 4 5 6 7 8 9 10 11 12 13 14 15 16 17 18 19 20 21 22 23 24 25 26 27 28 29 30 31 32 33 34 35 36 37 38 39 40 41 42 43 44 45 46 47 48 49 50
000
ASUS43 KLMK 212102
RWRKY
KENTUCKY REGIONAL WEATHER ROUNDUP
NATIONAL WEATHER SERVICE LOUISVILLE KY
500 PM EDT THU SEP 21 2017

NOTE "FAIR" INDICATES FEW OR NO CLOUDS BELOW 12,000 FEET
WITH NO SIGNIFICANT WEATHER AND/OR OBSTRUCTIONS TO VISIBILITY.

KYZ001>023-026-027-061>063-070>075-212200-
WESTERN AND SOUTH CENTRAL KENTUCKY

CITY           SKY/WX    TMP DP  RH WIND       PRES   REMARKS
PADUCAH        MOSUNNY   92  66  42 CALM      29.99F HX  94
HENDERSON      SUNNY     92  68  45 VRB3      30.01F HX  96
OWENSBORO      SUNNY     93  68  43 CALM      30.01F HX  97
HOPKINSVILLE   MOSUNNY   89  67  47 N5        30.01F HX  92
BOWLING GREEN  MOSUNNY   90  71  53 E8        30.02F HX  96
GLASGOW        MOSUNNY   89  65  45 E7        30.03F HX  90
$$

KYZ024-025-028>034-038-045-046-053-212200-
NORTH CENTRAL KENTUCKY

CITY           SKY/WX    TMP DP  RH WIND       PRES   REMARKS
LOUISVILLE/SDF MOSUNNY   89  66  46 SE3       30.02F HX  91
LOUISVILLE/LOU SUNNY     91  69  48 CALM      30.03F HX  96
FORT KNOX      MOSUNNY   88  69  53 E3        30.02F HX  92
$$

KYZ035>037-039>044-047>052-055>060-089>105-212200-
NORTHEAST KENTUCKY

CITY           SKY/WX    TMP DP  RH WIND       PRES   REMARKS
LEXINGTON      MOSUNNY   88  67  49 NE7       30.06F HX  91
COVINGTON      MOSUNNY   87  71  58 SW3       30.05F HX  93
FRANKFORT      MOSUNNY   88  67  49 E6        30.04F HX  91
$$

KYZ054-064>069-076>088-106>120-212200-
SOUTHEAST KENTUCKY

CITY           SKY/WX    TMP DP  RH WIND       PRES   REMARKS
JACKSON        MOSUNNY   77  68  73 CALM      30.08F
LONDON         SUNNY     86  61  42 VRB7      30.07F
SOMERSET       MOSUNNY   77  68  73 E3        30.07F
MIDDLESBORO    PTSUNNY   83  63  50 NE8G16    30.07S
MONTICELLO     CLOUDY    85  69  58 W8        30.07F
$$





USA.gov is the U.S. government's official web portal to all federal, state and local government web resources and services.